CES7630 ZUXC-PHNL

Flight info

Callsign CES7630
Flight time N/A
Altitude 35100
Route BOPTU W162 KAKMI W144 IGNAK W179 WFX B213 ESPEG V154 SNF W269 OLPOV B213 WHA R343 PK A593 AKARA/K0909F351 A593 LAMEN/N0491F351 A593 SADLI Y590 BEDAR Y591 FUE Y23 KASTE Y81 TASOT Y57 LIGNI Y816 IPROS Y830 LAPIL OTR13 SEALS DCT 34N153E DCT 34N159E DCT 33N166E DCT 31N173E DCT 29N179E DCT 27N174W DCT 25N168W DCT CANON DCT CANON
Aircraft MD11/H-SDE1E2E3FGHIJ2J3J4J5M1RWXY/LB1D1

Departure

Time 2026-05-08 14:55
Airport Xichang Qingshan Airport (ZUXC)

Arrival

Time N/A
Airport Daniel K. Inouye International Airport (PHNL)
Time Latitude Longitude Altitude Speed Heading
2026-05-08 14:44 27.98292 102.18647 5114 ft 0 kts 88°
2026-05-08 14:45 27.98292 102.18637 5117 ft 4 kts 87°
2026-05-08 14:46 27.98291 102.18609 5117 ft 3 kts 88°
2026-05-08 14:46 27.98288 102.18585 5118 ft 4 kts 52°
2026-05-08 14:46 27.98280 102.18574 5121 ft 4 kts 351°
2026-05-08 14:46 27.98256 102.18583 5116 ft 4 kts 339°
2026-05-08 14:47 27.98231 102.18592 5117 ft 4 kts 355°
2026-05-08 14:47 27.98225 102.18593 5117 ft 0 kts
2026-05-08 14:49 27.98227 102.18593 5116 ft 2 kts
2026-05-08 14:50 27.98261 102.18592 5117 ft 8 kts 359°
2026-05-08 14:50 27.98335 102.18590 5114 ft 13 kts 358°
2026-05-08 14:50 27.98446 102.18585 5114 ft 18 kts 358°
2026-05-08 14:50 27.98589 102.18579 5114 ft 23 kts 358°
2026-05-08 14:51 27.98752 102.18573 5117 ft 24 kts 358°
2026-05-08 14:51 27.98922 102.18567 5117 ft 25 kts 358°
2026-05-08 14:51 27.99096 102.18560 5118 ft 25 kts 358°
2026-05-08 14:51 27.99259 102.18554 5118 ft 22 kts 358°
2026-05-08 14:52 27.99415 102.18547 5118 ft 23 kts 358°
2026-05-08 14:52 27.99744 102.18536 5117 ft 25 kts 359°
2026-05-08 14:52 27.99918 102.18529 5117 ft 25 kts 357°
2026-05-08 14:53 28.00096 102.18520 5117 ft 26 kts 358°
2026-05-08 14:53 28.00280 102.18513 5122 ft 27 kts 359°
2026-05-08 14:53 28.00427 102.18509 5123 ft 12 kts 359°
2026-05-08 14:53 28.00494 102.18484 5123 ft 9 kts 305°
2026-05-08 14:54 28.00508 102.18417 5122 ft 9 kts 270°
2026-05-08 14:54 28.00481 102.18371 5122 ft 5 kts 192°
2026-05-08 14:54 28.00390 102.18372 5091 ft 40 kts 180°
2026-05-08 14:54 27.99843 102.18394 5090 ft 115 kts 178°
2026-05-08 14:55 27.98845 102.18433 5091 ft 172 kts 178°
2026-05-08 14:55 27.97573 102.18471 5368 ft 185 kts 174°
2026-05-08 14:55 27.96271 102.18519 5976 ft 187 kts 172°
2026-05-08 14:55 27.94954 102.18546 6590 ft 191 kts 173°
2026-05-08 14:56 27.93620 102.18552 7206 ft 193 kts 173°
2026-05-08 14:56 27.92268 102.18547 7812 ft 195 kts 173°
2026-05-08 14:56 27.90902 102.18531 8362 ft 201 kts 173°
2026-05-08 14:56 27.89422 102.18522 8515 ft 224 kts 173°
2026-05-08 14:57 27.87823 102.18527 8871 ft 232 kts 173°
2026-05-08 14:57 27.86200 102.18528 9456 ft 235 kts 173°
2026-05-08 14:57 27.84559 102.18520 10020 ft 237 kts 173°
2026-05-08 14:57 27.82900 102.18503 10540 ft 239 kts 173°
2026-05-08 14:58 27.81300 102.18791 11006 ft 227 kts 147°
2026-05-08 14:58 27.80137 102.19874 11488 ft 213 kts 117°
2026-05-08 14:58 27.79457 102.21348 11917 ft 213 kts 112°
2026-05-08 14:58 27.78831 102.22899 12139 ft 223 kts 105°
2026-05-08 14:59 27.78474 102.24641 12296 ft 234 kts 94°
2026-05-08 14:59 27.79002 102.28448 12565 ft 269 kts 66°
2026-05-08 14:59 27.79940 102.30387 12722 ft 295 kts 62°
2026-05-08 15:00 27.81017 102.32468 12873 ft 319 kts 62°
2026-05-08 15:00 27.82148 102.34720 13191 ft 335 kts 63°
2026-05-08 15:00 27.83267 102.37030 13971 ft 337 kts 63°
2026-05-08 15:00 27.84366 102.39364 14786 ft 337 kts 64°
2026-05-08 15:01 27.85451 102.41717 15483 ft 337 kts 63°
2026-05-08 15:01 27.86520 102.44068 16312 ft 336 kts 63°
2026-05-08 15:01 27.87574 102.46410 17177 ft 335 kts 62°
2026-05-08 15:01 27.88631 102.48764 17847 ft 336 kts 61°
2026-05-08 15:02 27.89691 102.51126 18511 ft 339 kts 60°
2026-05-08 15:02 27.90762 102.53505 19172 ft 341 kts 59°
2026-05-08 15:02 27.91842 102.55899 19837 ft 344 kts 58°
2026-05-08 15:02 27.92933 102.58317 20466 ft 346 kts 57°
2026-05-08 15:03 27.94033 102.60752 21086 ft 350 kts 57°
2026-05-08 15:03 27.95144 102.63216 21639 ft 353 kts 56°
2026-05-08 15:03 27.96264 102.65700 22156 ft 357 kts 56°
2026-05-08 15:03 27.97396 102.68212 22683 ft 360 kts 56°
2026-05-08 15:04 27.98537 102.70749 23162 ft 363 kts 56°
2026-05-08 15:04 27.99688 102.73309 23636 ft 367 kts 56°
2026-05-08 15:04 28.00833 102.75857 24121 ft 369 kts 56°
2026-05-08 15:04 28.02001 102.78460 24604 ft 373 kts 57°
2026-05-08 15:05 28.03182 102.81091 25061 ft 377 kts 57°
2026-05-08 15:05 28.04370 102.83742 25527 ft 379 kts 57°
2026-05-08 15:05 28.05569 102.86417 25973 ft 383 kts 57°
2026-05-08 15:05 28.06777 102.89116 26393 ft 386 kts 57°
2026-05-08 15:06 28.07995 102.91838 26838 ft 389 kts 57°
2026-05-08 15:06 28.09221 102.94581 27129 ft 392 kts 57°
2026-05-08 15:06 28.10454 102.97341 27549 ft 394 kts 57°
2026-05-08 15:06 28.11697 103.00125 27940 ft 397 kts 57°
2026-05-08 15:07 28.12946 103.02922 28304 ft 400 kts 57°
2026-05-08 15:07 28.14201 103.05738 28665 ft 402 kts 57°
2026-05-08 15:07 28.15466 103.08576 28995 ft 405 kts 57°
2026-05-08 15:07 28.16740 103.11437 29309 ft 408 kts 57°
2026-05-08 15:08 28.18019 103.14313 29665 ft 410 kts 57°
2026-05-08 15:08 28.18870 103.16226 29956 ft 410 kts 57°
2026-05-08 15:08 28.20584 103.20087 30514 ft 410 kts 57°
2026-05-08 15:08 28.21860 103.22967 31031 ft 408 kts 57°
2026-05-08 15:09 28.23133 103.25838 31498 ft 407 kts 57°
2026-05-08 15:09 28.24403 103.28705 31968 ft 406 kts 57°
2026-05-08 15:09 28.25667 103.31559 32424 ft 405 kts 57°
2026-05-08 15:09 28.26502 103.33447 32683 ft 404 kts 57°
2026-05-08 15:10 28.28179 103.37263 33194 ft 404 kts 57°
2026-05-08 15:10 28.29007 103.39149 33417 ft 404 kts 57°
2026-05-08 15:10 28.30684 103.42964 33866 ft 403 kts 57°
2026-05-08 15:10 28.31512 103.44847 34116 ft 402 kts 57°
2026-05-08 15:11 28.32756 103.47675 34497 ft 400 kts 57°
2026-05-08 15:11 28.33995 103.50488 34864 ft 399 kts 57°
2026-05-08 15:11 28.35243 103.53316 35003 ft 403 kts 57°
2026-05-08 15:11 28.36504 103.56174 35020 ft 405 kts 57°
2026-05-08 15:12 28.39006 103.61866 35027 ft 401 kts 57°
2026-05-08 15:12 28.41486 103.67514 35034 ft 399 kts 57°
2026-05-08 15:13 28.44370 103.74087 35031 ft 400 kts 57°
2026-05-08 15:13 28.46430 103.78790 35028 ft 399 kts 57°
2026-05-08 15:14 28.48907 103.84452 35021 ft 401 kts 57°
2026-05-08 15:14 28.51398 103.90156 35031 ft 400 kts 57°
2026-05-08 15:15 28.53868 103.95818 35031 ft 399 kts 57°
2026-05-08 15:15 28.56332 104.01472 35037 ft 400 kts 57°
2026-05-08 15:16 28.58790 104.07152 35036 ft 400 kts 58°
2026-05-08 15:16 28.61225 104.12807 35028 ft 400 kts 58°
2026-05-08 15:17 28.63713 104.18290 35024 ft 369 kts 53°
2026-05-08 15:17 28.65109 104.20609 35023 ft 345 kts 46°
2026-05-08 15:17 28.66689 104.22604 35024 ft 335 kts 40°
2026-05-08 15:18 28.70368 104.25767 35031 ft 331 kts 29°
2026-05-08 15:18 28.74572 104.27856 35032 ft 332 kts 18°
2026-05-08 15:19 28.79124 104.28800 35024 ft 335 kts
2026-05-08 15:19 28.83821 104.28701 35039 ft 340 kts
2026-05-08 15:20 28.88537 104.28374 35029 ft 339 kts
2026-05-08 15:20 28.93250 104.28076 35030 ft 339 kts
2026-05-08 15:21 28.97964 104.27802 35030 ft 339 kts
2026-05-08 15:21 29.02677 104.27537 35029 ft 339 kts
2026-05-08 15:22 29.07388 104.27274 35029 ft 339 kts
2026-05-08 15:22 29.12100 104.27012 35030 ft 339 kts
2026-05-08 15:23 29.16811 104.26750 35029 ft 339 kts
2026-05-08 15:23 29.21525 104.26488 35029 ft 339 kts
2026-05-08 15:24 29.26233 104.26235 35028 ft 338 kts
2026-05-08 15:24 29.30878 104.26682 35030 ft 334 kts 12°
2026-05-08 15:25 29.35469 104.27482 35027 ft 334 kts 12°
2026-05-08 15:25 29.40057 104.28289 35028 ft 334 kts 12°
2026-05-08 15:26 29.44650 104.29082 35030 ft 334 kts 12°
2026-05-08 15:26 29.49246 104.29869 35027 ft 334 kts 12°
2026-05-08 15:27 29.53839 104.30655 35030 ft 334 kts 12°
2026-05-08 15:27 29.58432 104.31440 35028 ft 334 kts 12°
2026-05-08 15:28 29.63025 104.32226 35028 ft 334 kts 12°
2026-05-08 15:28 29.67618 104.33012 35029 ft 334 kts 12°
2026-05-08 15:29 29.72211 104.33800 35029 ft 334 kts 12°
2026-05-08 15:29 29.76807 104.34588 35027 ft 334 kts 12°
2026-05-08 15:30 29.81398 104.35377 35027 ft 334 kts 12°
2026-05-08 15:30 29.85994 104.36166 35030 ft 334 kts 12°
2026-05-08 15:31 29.90591 104.36957 35027 ft 334 kts 12°
2026-05-08 15:31 29.95184 104.37748 35029 ft 334 kts 12°
2026-05-08 15:32 29.99776 104.38540 35029 ft 334 kts 12°
2026-05-08 15:32 30.04369 104.39332 35029 ft 334 kts 12°
2026-05-08 15:33 30.08930 104.40120 35028 ft 334 kts 12°
2026-05-08 15:33 30.13521 104.40917 35030 ft 334 kts 12°
2026-05-08 15:34 30.17982 104.41697 35030 ft 334 kts 12°
2026-05-08 15:34 30.22574 104.42502 35030 ft 334 kts 12°
2026-05-08 15:35 30.27165 104.43306 35030 ft 334 kts 12°
2026-05-08 15:35 30.31756 104.44111 35029 ft 334 kts 12°
2026-05-08 15:36 30.35572 104.44781 35030 ft 334 kts 12°
2026-05-08 15:36 30.40940 104.45723 35029 ft 334 kts 12°
2026-05-08 15:37 30.45530 104.46530 35028 ft 334 kts 12°
2026-05-08 15:37 30.50102 104.47429 35028 ft 332 kts 15°
2026-05-08 15:38 30.54445 104.49174 35030 ft 330 kts 26°
2026-05-08 15:38 30.58291 104.52085 35029 ft 332 kts 38°
2026-05-08 15:39 30.61460 104.56029 35032 ft 338 kts 49°
2026-05-08 15:39 30.63774 104.60847 35030 ft 348 kts 60°
2026-05-08 15:40 30.65283 104.66244 35027 ft 353 kts 65°
2026-05-08 15:40 30.66630 104.71732 35031 ft 353 kts 65°
2026-05-08 15:41 30.67987 104.77172 35030 ft 353 kts 65°
2026-05-08 15:41 30.69371 104.82635 35030 ft 353 kts 65°
2026-05-08 15:42 30.70763 104.88105 35029 ft 353 kts 65°
2026-05-08 15:42 30.72153 104.93574 35031 ft 353 kts 65°
2026-05-08 15:43 30.73542 104.99046 35026 ft 353 kts 65°
2026-05-08 15:43 30.74928 105.04519 35029 ft 353 kts 65°
2026-05-08 15:44 30.76313 105.09994 35027 ft 353 kts 65°
2026-05-08 15:44 30.77692 105.15460 35032 ft 352 kts 65°
2026-05-08 15:45 30.79070 105.20933 35030 ft 353 kts 65°
2026-05-08 15:45 30.80446 105.26406 35026 ft 353 kts 65°
2026-05-08 15:46 30.81822 105.31889 35027 ft 353 kts 65°
2026-05-08 15:46 30.83196 105.37376 35027 ft 353 kts 65°
2026-05-08 15:47 30.84527 105.42872 35030 ft 354 kts 67°
2026-05-08 15:47 30.85717 105.48447 35030 ft 355 kts 68°
2026-05-08 15:48 30.87480 105.56826 35030 ft 355 kts 67°
2026-05-08 15:49 30.88660 105.62410 35030 ft 355 kts 67°
2026-05-08 15:49 30.89834 105.67960 35029 ft 355 kts 67°
2026-05-08 15:50 30.91020 105.73580 35030 ft 355 kts 67°
2026-05-08 15:50 30.92198 105.79172 35029 ft 355 kts 67°
2026-05-08 15:51 30.93373 105.84762 35029 ft 355 kts 68°
2026-05-08 15:51 30.94538 105.90316 35026 ft 355 kts 68°
2026-05-08 15:52 30.95708 105.95909 35027 ft 356 kts 68°
2026-05-08 15:52 30.96806 106.01538 35028 ft 360 kts 72°
2026-05-08 15:53 30.97288 106.07407 35029 ft 366 kts 76°
2026-05-08 15:53 30.97601 106.13329 35030 ft 366 kts 76°
2026-05-08 15:54 30.97924 106.19247 35026 ft 365 kts 76°
2026-05-08 15:54 30.98261 106.25159 35028 ft 366 kts 76°
2026-05-08 15:55 30.98602 106.31074 35030 ft 366 kts 76°
2026-05-08 15:55 30.99111 106.39943 35028 ft 366 kts 76°
2026-05-08 15:56 30.99390 106.44862 35032 ft 366 kts 76°
2026-05-08 15:56 30.99780 106.51778 35033 ft 366 kts 76°
2026-05-08 15:57 31.00055 106.56700 35027 ft 366 kts 76°
2026-05-08 15:57 31.00438 106.63617 35028 ft 366 kts 76°
2026-05-08 15:58 31.00709 106.68539 35034 ft 366 kts 76°
2026-05-08 15:58 31.01033 106.74466 35027 ft 366 kts 76°
2026-05-08 15:59 31.01352 106.80383 35028 ft 366 kts 76°
2026-05-08 15:59 31.01670 106.86306 35030 ft 366 kts 76°
2026-05-08 16:00 31.01985 106.92225 35033 ft 366 kts 76°
2026-05-08 16:00 31.02296 106.98153 35027 ft 367 kts 77°
2026-05-08 16:01 31.02584 107.04086 35027 ft 366 kts 77°
2026-05-08 16:01 31.02878 107.10019 35031 ft 366 kts 76°
2026-05-08 16:02 31.03177 107.15939 35031 ft 366 kts 77°
2026-05-08 16:02 31.03476 107.21824 35026 ft 366 kts 76°
2026-05-08 16:03 31.03774 107.27752 35028 ft 366 kts 77°
2026-05-08 16:03 31.04071 107.33679 35026 ft 366 kts 77°
2026-05-08 16:04 31.04364 107.39610 35030 ft 366 kts 77°
2026-05-08 16:04 31.04614 107.45550 35023 ft 367 kts 78°
2026-05-08 16:05 31.04797 107.51507 35033 ft 368 kts 78°
2026-05-08 16:05 31.04927 107.57479 35029 ft 368 kts 78°
2026-05-08 16:06 31.05046 107.63445 35031 ft 368 kts 78°
2026-05-08 16:06 31.05164 107.69414 35031 ft 368 kts 78°
2026-05-08 16:07 31.05278 107.75392 35031 ft 368 kts 78°
2026-05-08 16:07 31.05390 107.81362 35017 ft 369 kts 78°
2026-05-08 16:08 31.05503 107.87359 35027 ft 369 kts 78°
2026-05-08 16:08 31.05611 107.93330 35027 ft 369 kts 78°
2026-05-08 16:09 31.05717 107.99304 35032 ft 368 kts 78°
2026-05-08 16:09 31.05821 108.05276 35030 ft 369 kts 79°
2026-05-08 16:10 31.05922 108.11258 35027 ft 369 kts 78°
2026-05-08 16:10 31.06020 108.17237 35016 ft 368 kts 79°
2026-05-08 16:11 31.06115 108.23172 35029 ft 369 kts 79°
2026-05-08 16:11 31.06208 108.29155 35030 ft 369 kts 79°
2026-05-08 16:12 31.06297 108.35130 35030 ft 369 kts 79°
2026-05-08 16:12 31.06385 108.41112 35030 ft 369 kts 79°
2026-05-08 16:13 31.06469 108.47095 35022 ft 369 kts 79°
2026-05-08 16:13 31.06550 108.53072 35034 ft 369 kts 79°
2026-05-08 16:14 31.06629 108.59054 35030 ft 369 kts 79°
2026-05-08 16:14 31.06702 108.65041 35031 ft 369 kts 79°
2026-05-08 16:15 31.06752 108.71036 35037 ft 369 kts 79°
2026-05-08 16:15 31.06811 108.77026 35038 ft 369 kts 79°
2026-05-08 16:16 31.06875 108.83013 35025 ft 368 kts 79°
2026-05-08 16:16 31.06940 108.89001 35033 ft 370 kts 79°
2026-05-08 16:17 31.06993 108.93972 35023 ft 369 kts 79°
2026-05-08 16:17 31.07062 109.00980 35028 ft 370 kts 79°
2026-05-08 16:18 31.07117 109.06965 35028 ft 369 kts 79°
2026-05-08 16:18 31.07172 109.12965 35032 ft 369 kts 79°
2026-05-08 16:19 31.07223 109.18956 35030 ft 369 kts 79°
2026-05-08 16:19 31.07270 109.24947 35031 ft 369 kts 79°
2026-05-08 16:20 31.07317 109.30942 35026 ft 370 kts 79°
2026-05-08 16:20 31.07359 109.36935 35027 ft 370 kts 79°
2026-05-08 16:21 31.07400 109.42936 35039 ft 371 kts 79°
2026-05-08 16:21 31.07436 109.48943 35039 ft 370 kts 79°
2026-05-08 16:22 31.07472 109.54958 35041 ft 372 kts 79°
2026-05-08 16:22 31.07500 109.60978 35028 ft 370 kts 79°
2026-05-08 16:23 31.07508 109.66980 35027 ft 370 kts 79°
2026-05-08 16:23 31.06885 109.73042 35027 ft 388 kts 94°
2026-05-08 16:24 31.05223 109.79108 35027 ft 395 kts 97°
2026-05-08 16:24 31.03448 109.85127 35030 ft 394 kts 97°
2026-05-08 16:25 31.01708 109.91179 35023 ft 393 kts 97°
2026-05-08 16:25 30.99995 109.97236 35024 ft 393 kts 97°
2026-05-08 16:26 30.98291 110.03282 35024 ft 393 kts 97°
2026-05-08 16:26 30.96582 110.09339 35028 ft 393 kts 97°
2026-05-08 16:27 30.94872 110.15385 35031 ft 393 kts 97°
2026-05-08 16:27 30.93156 110.21444 35027 ft 394 kts 97°
2026-05-08 16:28 30.91436 110.27498 35030 ft 394 kts 97°
2026-05-08 16:28 30.89714 110.33545 35024 ft 393 kts 97°
2026-05-08 16:29 30.87990 110.39591 35028 ft 393 kts 97°
2026-05-08 16:29 30.86267 110.45619 35031 ft 393 kts 97°
2026-05-08 16:30 30.84538 110.51662 35033 ft 394 kts 97°
2026-05-08 16:30 30.82805 110.57704 35032 ft 394 kts 97°
2026-05-08 16:31 30.81064 110.63748 35031 ft 394 kts 97°
2026-05-08 16:31 30.79304 110.69773 35029 ft 392 kts 97°
2026-05-08 16:32 30.77556 110.75796 35031 ft 394 kts 97°
2026-05-08 16:32 30.75820 110.81793 35022 ft 394 kts 97°
2026-05-08 16:33 30.74070 110.87826 35030 ft 394 kts 97°
2026-05-08 16:33 30.72318 110.93863 35029 ft 394 kts 97°
2026-05-08 16:34 30.70551 110.99937 35026 ft 394 kts 97°
2026-05-08 16:34 30.68806 111.05926 35029 ft 394 kts 97°
2026-05-08 16:35 30.67045 111.11952 35028 ft 394 kts 97°
2026-05-08 16:35 30.65282 111.17982 35034 ft 395 kts 97°
2026-05-08 16:36 30.63520 111.24011 35029 ft 393 kts 96°
2026-05-08 16:36 30.62861 111.27039 35025 ft 380 kts 86°
2026-05-08 16:36 30.62764 111.30030 35026 ft 365 kts 76°
2026-05-08 16:37 30.63471 111.35783 35030 ft 359 kts 71°
2026-05-08 16:37 30.64336 111.41490 35027 ft 359 kts 71°
2026-05-08 16:38 30.65129 111.47229 35029 ft 362 kts 73°
2026-05-08 16:38 30.65561 111.53096 35030 ft 366 kts 76°
2026-05-08 16:39 30.65854 111.59001 35028 ft 366 kts 77°
2026-05-08 16:39 30.66144 111.64908 35029 ft 366 kts 77°
2026-05-08 16:40 30.66440 111.70811 35028 ft 366 kts 77°
2026-05-08 16:40 30.66739 111.76716 35025 ft 366 kts 77°
2026-05-08 16:41 30.67039 111.82617 35030 ft 366 kts 77°
2026-05-08 16:42 30.67486 111.91478 35029 ft 366 kts 77°
2026-05-08 16:42 30.67802 111.97379 35027 ft 365 kts 76°
2026-05-08 16:43 30.68194 112.03259 35031 ft 365 kts 76°
2026-05-08 16:43 30.68602 112.09134 35027 ft 365 kts 75°
2026-05-08 16:44 30.69007 112.15009 35027 ft 365 kts 76°
2026-05-08 16:44 30.69340 112.19891 35028 ft 365 kts 76°
2026-05-08 16:45 30.69806 112.26766 35030 ft 365 kts 76°
2026-05-08 16:45 30.70135 112.31653 35030 ft 365 kts 76°
2026-05-08 16:46 30.70529 112.37540 34963 ft 366 kts 76°
2026-05-08 16:46 30.70918 112.43418 34932 ft 365 kts 76°
2026-05-08 16:47 30.71369 112.50252 34929 ft 365 kts 76°
2026-05-08 16:47 30.71754 112.56139 34934 ft 365 kts 76°
2026-05-08 16:48 30.72074 112.61071 34928 ft 365 kts 76°
2026-05-08 16:48 30.72454 112.66961 34929 ft 365 kts 76°
2026-05-08 16:49 30.72831 112.72850 34929 ft 365 kts 76°
2026-05-08 16:49 30.73203 112.78699 34929 ft 365 kts 76°
2026-05-08 16:50 30.73575 112.84590 34929 ft 365 kts 76°
2026-05-08 16:50 30.73945 112.90479 34929 ft 366 kts 76°
2026-05-08 16:51 30.74295 112.96378 34928 ft 366 kts 76°
2026-05-08 16:51 30.74643 113.02276 34929 ft 366 kts 76°
2026-05-08 16:52 30.74999 113.08173 34928 ft 366 kts 76°
2026-05-08 16:52 30.75340 113.14076 34929 ft 367 kts 77°
2026-05-08 16:53 30.75607 113.22995 34929 ft 368 kts 78°
2026-05-08 16:53 30.75755 113.28948 34929 ft 368 kts 78°
2026-05-08 16:54 30.75905 113.34898 34929 ft 368 kts 78°
2026-05-08 16:54 30.76056 113.40852 34929 ft 368 kts 78°
2026-05-08 16:55 30.76206 113.46805 34928 ft 368 kts 78°
2026-05-08 16:55 30.76352 113.52755 34929 ft 368 kts 78°
2026-05-08 16:56 30.76493 113.58598 34929 ft 368 kts 78°
2026-05-08 16:56 30.76634 113.64513 34929 ft 368 kts 78°
2026-05-08 16:57 30.76772 113.70466 34929 ft 368 kts 78°
2026-05-08 16:57 30.76908 113.76421 34929 ft 368 kts 78°
2026-05-08 16:58 30.77041 113.82378 34928 ft 368 kts 78°
2026-05-08 16:58 30.77171 113.88336 34929 ft 368 kts 78°
2026-05-08 16:59 30.77299 113.94292 34929 ft 369 kts 78°
2026-05-08 16:59 30.77425 114.00249 34929 ft 368 kts 78°
2026-05-08 17:00 30.77618 114.06191 34929 ft 367 kts 77°
2026-05-08 17:00 30.77855 114.12122 34929 ft 367 kts 77°
2026-05-08 17:01 30.78103 114.18049 34928 ft 366 kts 76°
2026-05-08 17:01 30.78462 114.20929 34927 ft 355 kts 66°
2026-05-08 17:01 30.79188 114.23645 34934 ft 350 kts 62°
2026-05-08 17:02 30.80920 114.28815 34928 ft 349 kts 60°
2026-05-08 17:02 30.82683 114.34072 34929 ft 349 kts 61°
2026-05-08 17:03 30.84410 114.39351 34928 ft 349 kts 61°
2026-05-08 17:03 30.86124 114.44645 34928 ft 349 kts 62°
2026-05-08 17:04 30.87838 114.49934 34928 ft 349 kts 61°
2026-05-08 17:04 30.89557 114.55225 34929 ft 349 kts 61°
2026-05-08 17:05 30.91276 114.60515 34928 ft 349 kts 61°
2026-05-08 17:05 30.92967 114.65729 34929 ft 349 kts 62°
2026-05-08 17:06 30.94681 114.71023 34927 ft 349 kts 62°
2026-05-08 17:06 30.96393 114.76317 34928 ft 349 kts 62°
2026-05-08 17:07 30.98103 114.81617 34929 ft 349 kts 62°
2026-05-08 17:07 30.99800 114.86884 34929 ft 350 kts 62°
2026-05-08 17:08 31.01518 114.92222 34929 ft 350 kts 62°
2026-05-08 17:08 31.03175 114.97414 34929 ft 350 kts 62°
2026-05-08 17:09 31.04869 115.02725 34928 ft 350 kts 62°
2026-05-08 17:09 31.06540 115.07955 34926 ft 349 kts 62°
2026-05-08 17:10 31.08229 115.13246 34929 ft 348 kts 62°
2026-05-08 17:10 31.09923 115.18554 34928 ft 350 kts 62°
2026-05-08 17:11 31.11612 115.23881 34933 ft 350 kts 62°
2026-05-08 17:11 31.13295 115.29201 34926 ft 349 kts 62°
2026-05-08 17:12 31.15010 115.34504 34928 ft 349 kts 61°
2026-05-08 17:12 31.16729 115.39802 34930 ft 349 kts 61°
2026-05-08 17:13 31.18447 115.45107 34932 ft 349 kts 61°
2026-05-08 17:13 31.20165 115.50416 34933 ft 349 kts 62°
2026-05-08 17:14 31.21878 115.55724 34926 ft 349 kts 62°
2026-05-08 17:14 31.23592 115.61040 34942 ft 351 kts 62°
2026-05-08 17:15 31.25283 115.66294 34930 ft 351 kts 62°
2026-05-08 17:15 31.26996 115.71628 34932 ft 350 kts 62°
2026-05-08 17:16 31.28704 115.76957 34928 ft 349 kts 62°
2026-05-08 17:16 31.30385 115.82247 34929 ft 350 kts 62°
2026-05-08 17:17 31.32078 115.87569 34930 ft 349 kts 62°
2026-05-08 17:17 31.33801 115.92878 34931 ft 349 kts 61°
2026-05-08 17:18 31.35535 115.98188 34929 ft 349 kts 61°
2026-05-08 17:18 31.37268 116.03499 34931 ft 350 kts 61°
2026-05-08 17:19 31.39001 116.08820 34929 ft 351 kts 61°
2026-05-08 17:19 31.40733 116.14148 34925 ft 349 kts 61°
2026-05-08 17:20 31.42458 116.19463 34926 ft 349 kts 61°
2026-05-08 17:20 31.44182 116.24783 34932 ft 349 kts 61°
2026-05-08 17:21 31.45904 116.30105 34928 ft 349 kts 61°
2026-05-08 17:21 31.47624 116.35431 34929 ft 349 kts 61°
2026-05-08 17:22 31.49341 116.40755 34928 ft 350 kts 62°
2026-05-08 17:22 31.51056 116.46081 34928 ft 349 kts 62°
2026-05-08 17:23 31.52770 116.51413 34928 ft 349 kts 62°
2026-05-08 17:23 31.54480 116.56744 34928 ft 349 kts 62°
2026-05-08 17:24 31.56189 116.62078 34928 ft 350 kts 62°
2026-05-08 17:24 31.57895 116.67413 34929 ft 350 kts 62°
2026-05-08 17:25 31.59575 116.72677 34930 ft 350 kts 62°
2026-05-08 17:25 31.61278 116.78019 34928 ft 350 kts 62°
2026-05-08 17:26 31.62960 116.83371 34929 ft 350 kts 62°
2026-05-08 17:26 31.64646 116.88724 34929 ft 350 kts 62°
2026-05-08 17:27 31.66337 116.94074 34933 ft 350 kts 62°
2026-05-08 17:27 31.68030 116.99425 34928 ft 350 kts 62°
2026-05-08 17:28 31.69685 117.04758 34929 ft 350 kts 62°
2026-05-08 17:28 31.71340 117.10134 34928 ft 350 kts 62°
2026-05-08 17:29 31.72993 117.15512 34927 ft 350 kts 62°
2026-05-08 17:29 31.74646 117.20889 34931 ft 350 kts 62°
2026-05-08 17:30 31.76297 117.26272 34929 ft 350 kts 62°
2026-05-08 17:30 31.77400 117.31917 34929 ft 367 kts 78°
2026-05-08 17:31 31.77135 117.38001 34930 ft 377 kts 85°
2026-05-08 17:31 31.76626 117.44132 34929 ft 377 kts 84°
2026-05-08 17:32 31.76157 117.50255 34929 ft 376 kts 84°
2026-05-08 17:32 31.75721 117.56374 34929 ft 376 kts 84°
2026-05-08 17:33 31.75295 117.62484 34929 ft 375 kts 84°
2026-05-08 17:33 31.74941 117.67568 34928 ft 376 kts 84°
2026-05-08 17:34 31.74439 117.74723 34929 ft 376 kts 84°
2026-05-08 17:34 31.74080 117.79807 34928 ft 376 kts 84°
2026-05-08 17:35 31.73644 117.85930 34928 ft 376 kts 84°
2026-05-08 17:35 31.73206 117.92049 34930 ft 376 kts 84°
2026-05-08 17:36 31.72765 117.98165 34929 ft 376 kts 84°
2026-05-08 17:36 31.72320 118.04285 34930 ft 376 kts 84°
2026-05-08 17:37 31.71873 118.10402 34928 ft 376 kts 84°
2026-05-08 17:37 31.71430 118.16522 34929 ft 376 kts 84°
2026-05-08 17:38 31.70999 118.22641 34929 ft 376 kts 84°
2026-05-08 17:38 31.70572 118.28757 34930 ft 376 kts 84°
2026-05-08 17:39 31.70144 118.34876 34929 ft 376 kts 84°
2026-05-08 17:39 31.69713 118.40992 34929 ft 376 kts 84°
2026-05-08 17:40 31.69279 118.47108 34930 ft 376 kts 84°
2026-05-08 17:40 31.68842 118.53227 34928 ft 376 kts 84°
2026-05-08 17:41 31.68402 118.59342 34930 ft 376 kts 84°
2026-05-08 17:41 31.67959 118.65455 34929 ft 376 kts 84°
2026-05-08 17:42 31.67513 118.71573 34929 ft 376 kts 84°
2026-05-08 17:42 31.67064 118.77691 34933 ft 376 kts 84°
2026-05-08 17:43 31.66612 118.83808 34929 ft 376 kts 84°
2026-05-08 17:43 31.66160 118.89884 34927 ft 376 kts 84°
2026-05-08 17:44 31.65702 118.96002 34930 ft 376 kts 84°
2026-05-08 17:44 31.65229 119.02120 34930 ft 376 kts 84°
2026-05-08 17:45 31.64844 119.08227 34929 ft 375 kts 83°
2026-05-08 17:45 31.64535 119.14330 34927 ft 374 kts 83°
2026-05-08 17:46 31.64260 119.20422 34928 ft 374 kts 82°
2026-05-08 17:46 31.63991 119.26517 34927 ft 374 kts 82°
2026-05-08 17:47 31.63723 119.32501 34929 ft 374 kts 82°
2026-05-08 17:47 31.63491 119.37602 34928 ft 374 kts 83°
2026-05-08 17:48 31.63156 119.44687 34929 ft 374 kts 83°
2026-05-08 17:48 31.62866 119.50781 34929 ft 374 kts 83°
2026-05-08 17:49 31.62575 119.56874 34929 ft 374 kts 83°
2026-05-08 17:49 31.62282 119.62966 34929 ft 374 kts 83°
2026-05-08 17:50 31.61990 119.69061 34929 ft 374 kts 83°
2026-05-08 17:50 31.61710 119.75154 34929 ft 374 kts 82°
2026-05-08 17:51 31.61432 119.81242 34929 ft 374 kts 82°
2026-05-08 17:51 31.61153 119.87333 34929 ft 374 kts 82°
2026-05-08 17:52 31.60871 119.93423 34929 ft 374 kts 82°
2026-05-08 17:53 31.60443 120.02559 34929 ft 374 kts 83°
2026-05-08 17:53 31.60158 120.08560 34929 ft 374 kts 83°
2026-05-08 17:54 31.59866 120.14652 34928 ft 374 kts 83°
2026-05-08 17:54 31.59573 120.20700 34929 ft 374 kts 83°
2026-05-08 17:55 31.59275 120.26794 34926 ft 374 kts 83°
2026-05-08 17:55 31.58624 120.32908 34930 ft 388 kts 94°
2026-05-08 17:56 31.56927 120.38997 34932 ft 396 kts 98°
2026-05-08 17:56 31.55046 120.45067 34929 ft 396 kts 98°
2026-05-08 17:57 31.53202 120.51137 34929 ft 395 kts 98°
2026-05-08 17:57 31.51385 120.57212 34929 ft 395 kts 98°
2026-05-08 17:58 31.49574 120.63291 34928 ft 395 kts 98°
2026-05-08 17:58 31.47763 120.69366 34929 ft 395 kts 98°
2026-05-08 17:59 31.45949 120.75435 34929 ft 395 kts 98°